, AK

(GMT )
Denali Park

Weather History for PAIN - November, 2012

Change the Weather History Date:

Wednesday, November 7, 2012

  Actual Average Record
Temperature  
Mean Temperature -12 °F -  
Max Temperature 1 °F 21 °F 44 °F (2002)
Min Temperature -25 °F 3 °F -25 °F (2012)
Degree Days  
Heating Degree Days 77    
Moisture  
Dew Point -20 °F    
Average Humidity 82    
Maximum Humidity 92    
Minimum Humidity 71    
Precipitation  
Precipitation 0.00 in - - ()
Sea Level Pressure  
Sea Level Pressure 30.35 in    
Wind  
Wind Speed 0 mph (South)    
Max Wind Speed 4 mph    
Max Gust Speed -    
Visibility 10 miles    
Events      
Averages and records for this station are not official NWS values.
T = Trace of Precipitation, MM = Missing Value Source: NWS Daily Summary

Daily Weather History Graph

Daily Weather History Graph

Search for Another Location

Airport or City:

Astronomy

Nov. 07, 2012 Rise Set
Actual Time 8:57 AM AKST 4:20 PM AKST
Civil Twilight 8:02 AM AKST 5:15 PM AKST
Nautical Twilight 7:04 AM AKST 6:12 PM AKST
Astronomical Twilight 6:10 AM AKST 7:07 PM AKST
Moon No Moon Rise 2:37 PM AKST (11/7)
Length of Visible Light 9h 12m
Length of Day
7h 22m
Last Quarter, 41% of the Moon is Illuminated
Nov 7
Last Quarter
Nov 13
New
Nov 20
First Quarter
Nov 28
Full
Dec 6
Last Quarter

Hourly Weather History & Observations

Time (AKST) Temp. Windchill Dew Point Humidity Pressure Visibility Wind Dir Wind Speed Gust Speed Precip Events Conditions
12:16 AM -25.6 °F - -29.2 °F 83% 30.33 in 10.0 mi Calm Calm - N/A   Clear
12:36 AM -23.8 °F - -29.2 °F 76% 30.33 in 10.0 mi Calm Calm - N/A   Clear
12:56 AM -23.8 °F - -29.2 °F 76% 30.33 in 10.0 mi Calm Calm - N/A   Clear
1:16 AM -25.6 °F - -29.2 °F 83% 30.33 in 10.0 mi Calm Calm - N/A   Clear
1:36 AM -25.6 °F - -31.0 °F 76% 30.34 in 10.0 mi Calm Calm - N/A   Clear
1:56 AM -25.6 °F - -29.2 °F 83% 30.34 in 10.0 mi Calm Calm - N/A   Clear
2:16 AM -25.6 °F - -29.2 °F 83% 30.34 in 10.0 mi Calm Calm - N/A   Clear
2:36 AM -25.6 °F - -29.2 °F 83% 30.35 in 10.0 mi Calm Calm - N/A   Clear
3:36 AM -25.6 °F - -29.2 °F 83% 30.36 in 10.0 mi Calm Calm - N/A   Clear
3:56 AM -23.8 °F - -27.4 °F 83% 30.36 in 10.0 mi Calm Calm - N/A   Clear
4:16 AM -25.6 °F - -29.2 °F 83% 30.35 in 10.0 mi Calm Calm - N/A   Clear
4:36 AM -25.6 °F - -31.0 °F 76% 30.35 in 10.0 mi Calm Calm - N/A   Clear
4:56 AM -25.6 °F - -29.2 °F 83% 30.35 in 10.0 mi Calm Calm - N/A   Clear
5:16 AM -25.6 °F - -29.2 °F 83% 30.35 in 10.0 mi Calm Calm - N/A   Clear
5:36 AM -25.6 °F - -29.2 °F 83% 30.36 in 10.0 mi Calm Calm - N/A   Clear
5:56 AM -25.6 °F - -31.0 °F 76% 30.36 in 10.0 mi Calm Calm - N/A   Clear
6:16 AM -25.6 °F - -31.0 °F 76% 30.35 in 10.0 mi Calm Calm - N/A   Clear
6:36 AM -25.6 °F - -29.2 °F 83% 30.36 in 10.0 mi Calm Calm - N/A   Clear
6:56 AM -25.6 °F - -29.2 °F 83% 30.35 in 10.0 mi Calm Calm - N/A   Clear
7:16 AM -25.6 °F - -29.2 °F 83% 30.36 in 10.0 mi Calm Calm - N/A   Clear
7:36 AM -25.6 °F - -31.0 °F 76% 30.36 in 10.0 mi Calm Calm - N/A   Clear
7:56 AM -25.6 °F - -29.2 °F 83% 30.36 in 10.0 mi Calm Calm - N/A   Clear
8:16 AM -23.8 °F - -29.2 °F 76% 30.37 in 10.0 mi Calm Calm - N/A   Clear
8:36 AM -25.6 °F - -29.2 °F 83% 30.37 in 10.0 mi Calm Calm - N/A   Clear
8:56 AM -25.6 °F - -29.2 °F 83% 30.37 in 10.0 mi Calm Calm - N/A   Clear
9:16 AM -23.8 °F - -29.2 °F 76% 30.37 in 10.0 mi Calm Calm - N/A   Clear
9:36 AM -23.8 °F - -27.4 °F 83% 30.37 in 10.0 mi Calm Calm - N/A   Clear
9:56 AM -23.8 °F - -27.4 °F 83% 30.37 in 10.0 mi Calm Calm - N/A   Clear
10:16 AM -20.2 °F - -23.8 °F 83% 30.37 in 10.0 mi Calm Calm - N/A   Clear
10:36 AM -16.6 °F - -20.2 °F 84% 30.37 in 5.0 mi Calm Calm - N/A   Clear
10:56 AM -14.8 °F - -18.4 °F 84% 30.38 in 10.0 mi Calm Calm - N/A   Clear
11:16 AM -11.2 °F - -14.8 °F 84% 30.38 in 10.0 mi Calm Calm - N/A   Clear
11:36 AM -9.4 °F - -13.0 °F 84% 30.37 in 10.0 mi Calm Calm - N/A   Clear
11:56 AM -7.6 °F - - N/A% 30.37 in 10.0 mi Calm Calm - N/A   Clear
12:16 PM -5.8 °F - -9.4 °F 84% 30.37 in 10.0 mi Calm Calm - N/A   Clear
12:36 PM -2.2 °F - -9.4 °F 71% 30.36 in 10.0 mi Calm Calm - N/A   Clear
12:56 PM -2.2 °F - -7.6 °F 78% 30.36 in 10.0 mi Calm Calm - N/A   Clear
1:16 PM -2.2 °F - -7.6 °F 78% 30.36 in 10.0 mi Calm Calm - N/A   Clear
1:36 PM -0.4 °F - -5.8 °F 78% 30.35 in 10.0 mi Calm Calm - N/A   Clear
1:56 PM 1.4 °F - -5.8 °F 72% 30.35 in 10.0 mi Calm Calm - N/A   Clear
2:16 PM 1.4 °F - -5.8 °F 72% 30.35 in 10.0 mi Calm Calm - N/A   Clear
2:36 PM 1.4 °F - -4.0 °F 78% 30.34 in 10.0 mi Calm Calm - N/A   Clear
2:56 PM 1.4 °F - -5.8 °F 72% 30.34 in 10.0 mi Calm Calm - N/A   Clear
3:16 PM -2.2 °F - -7.6 °F 78% 30.34 in 10.0 mi Calm Calm - N/A   Clear
3:36 PM -4.0 °F - -9.4 °F 78% 30.34 in 10.0 mi Calm Calm - N/A   Clear
3:56 PM -5.8 °F - -9.4 °F 84% 30.34 in 10.0 mi Calm Calm - N/A   Clear
4:16 PM -5.8 °F - -9.4 °F 84% 30.35 in 10.0 mi Calm Calm - N/A   Clear
4:36 PM -7.6 °F - -11.2 °F 84% 30.35 in 10.0 mi Calm Calm - N/A   Clear
4:56 PM -9.4 °F - -13.0 °F 84% 30.35 in 10.0 mi Calm Calm - N/A   Clear
5:16 PM -9.4 °F - -13.0 °F 84% 30.35 in 10.0 mi Calm Calm - N/A   Clear
5:36 PM -11.2 °F - -14.8 °F 84% 30.35 in 10.0 mi Calm Calm - N/A   Clear
5:56 PM -11.2 °F - -14.8 °F 84% 30.35 in 10.0 mi Calm Calm - N/A   Clear
6:16 PM -11.2 °F - -16.6 °F 77% 30.35 in 10.0 mi Calm Calm - N/A   Clear
6:36 PM -11.2 °F - -16.6 °F 77% 30.35 in 10.0 mi Calm Calm - N/A   Clear
6:56 PM - - - N/A% 30.35 in 10.0 mi Calm Calm - N/A   Clear
7:16 PM -13.0 °F - -16.6 °F 84% 30.35 in 10.0 mi Calm Calm - N/A   Clear
7:36 PM -13.0 °F -22.7 °F -16.6 °F 84% 30.35 in 10.0 mi South 3.5 mph - N/A   Clear
7:56 PM -14.8 °F - -16.6 °F 92% 30.35 in 10.0 mi Calm Calm - N/A   Clear
8:16 PM -14.8 °F - -16.6 °F 92% 30.35 in 10.0 mi Calm Calm - N/A   Clear
8:36 PM -14.8 °F - -18.4 °F 84% 30.35 in 10.0 mi Calm Calm - N/A   Clear
8:56 PM -14.8 °F - -18.4 °F 84% 30.35 in 10.0 mi Calm Calm - N/A   Clear
9:16 PM -14.8 °F - -18.4 °F 84% 30.35 in 10.0 mi Calm Calm - N/A   Clear
9:36 PM -16.6 °F - -18.4 °F 92% 30.35 in 10.0 mi Calm Calm - N/A   Clear
9:56 PM -14.8 °F - -18.4 °F 84% 30.35 in 10.0 mi Calm Calm - N/A   Clear
10:16 PM -14.8 °F - -18.4 °F 84% 30.35 in 10.0 mi Calm Calm - N/A   Clear
10:36 PM -16.6 °F - -20.2 °F 84% 30.35 in 10.0 mi Calm Calm - N/A   Clear
10:56 PM -16.6 °F - -20.2 °F 84% 30.35 in 10.0 mi Calm Calm - N/A   Clear
11:16 PM -16.6 °F - -20.2 °F 84% 30.35 in 10.0 mi Calm Calm - N/A   Clear
11:36 PM -16.6 °F - -18.4 °F 92% 30.35 in 10.0 mi Calm Calm - N/A   Clear
11:56 PM -16.6 °F - -18.4 °F 92% 30.35 in 10.0 mi Calm Calm - N/A   Clear